Time,TemperatureF,DewpointF,PressureIn,WindDirection,WindDirectionDegrees,WindSpeedMPH,WindSpeedGustMPH,Humidity,HourlyPrecipIn,Conditions,Clouds,dailyrainin,SoftwareType,DateUTC
2013-07-20 00:02:00,71.2,62.1,29.75,ENE,63,0.0,0.0,73,0.00,,,0.00,meteobridge,2013-07-20 06:02:00,
2013-07-20 00:07:00,71.2,62.6,29.75,ENE,63,0.0,0.0,74,0.00,,,0.00,meteobridge,2013-07-20 06:07:00,
2013-07-20 00:12:00,70.9,62.2,29.75,ENE,63,0.0,0.0,74,0.00,,,0.00,meteobridge,2013-07-20 06:12:00,
2013-07-20 00:17:00,70.5,62.2,29.75,ENE,63,0.0,0.0,75,0.00,,,0.00,meteobridge,2013-07-20 06:17:00,
2013-07-20 00:22:00,70.2,61.9,29.75,ENE,63,0.0,0.0,75,0.00,,,0.00,meteobridge,2013-07-20 06:22:00,
2013-07-20 00:27:00,70.0,62.4,29.76,ENE,63,0.0,0.9,77,0.00,,,0.00,meteobridge,2013-07-20 06:27:00,
2013-07-20 00:32:00,70.3,61.3,29.76,NE,46,0.0,0.9,73,0.00,,,0.00,meteobridge,2013-07-20 06:32:00,
2013-07-20 00:37:00,70.3,62.1,29.76,NE,46,0.0,0.9,75,0.00,,,0.00,meteobridge,2013-07-20 06:37:00,
2013-07-20 00:42:00,69.8,61.9,29.76,NE,46,0.0,0.9,76,0.00,,,0.00,meteobridge,2013-07-20 06:42:00,
2013-07-20 00:48:00,69.6,62.1,29.76,NE,46,0.0,0.0,77,0.00,,,0.00,meteobridge,2013-07-20 06:48:00,
2013-07-20 00:53:00,69.4,61.5,29.76,NE,46,0.9,0.9,76,0.00,,,0.00,meteobridge,2013-07-20 06:53:00,
2013-07-20 00:56:00,69.6,61.7,29.76,NE,46,0.0,0.0,76,0.00,,,0.00,meteobridge,2013-07-20 06:56:00,
2013-07-20 01:01:00,69.6,61.3,29.76,NE,46,0.0,0.0,75,0.00,,,0.00,meteobridge,2013-07-20 07:01:00,
2013-07-20 01:06:00,69.4,61.9,29.76,WNW,299,0.9,2.9,77,0.00,,,0.00,meteobridge,2013-07-20 07:06:00,
2013-07-20 01:12:00,69.6,61.7,29.76,WNW,299,0.0,0.9,76,0.00,,,0.00,meteobridge,2013-07-20 07:12:00,
2013-07-20 01:17:00,69.6,60.3,29.77,NW,308,0.0,0.9,72,0.00,,,0.00,meteobridge,2013-07-20 07:17:00,
2013-07-20 01:22:00,69.6,60.3,29.77,North,0,0.9,4.0,72,0.00,,,0.00,meteobridge,2013-07-20 07:22:00,
2013-07-20 01:27:00,69.4,60.1,29.76,North,0,0.9,0.9,72,0.00,,,0.00,meteobridge,2013-07-20 07:27:00,
2013-07-20 01:32:00,68.7,60.8,29.76,North,355,0.9,2.0,76,0.00,,,0.00,meteobridge,2013-07-20 07:32:00,
2013-07-20 01:37:00,68.4,60.8,29.76,NNW,333,0.0,2.0,77,0.00,,,0.00,meteobridge,2013-07-20 07:37:00,
2013-07-20 01:42:00,68.2,60.6,29.76,NW,311,2.0,2.9,77,0.00,,,0.00,meteobridge,2013-07-20 07:42:00,
2013-07-20 01:47:00,68.2,60.6,29.77,NNW,328,0.0,2.9,77,0.00,,,0.00,meteobridge,2013-07-20 07:47:00,
2013-07-20 01:52:00,68.0,60.8,29.77,North,0,0.9,4.0,78,0.00,,,0.00,meteobridge,2013-07-20 07:52:00,
2013-07-20 01:57:00,68.0,60.4,29.76,North,350,2.9,6.0,77,0.00,,,0.00,meteobridge,2013-07-20 07:57:00,
2013-07-20 02:02:00,67.8,60.6,29.76,North,351,0.9,2.0,78,0.00,,,0.00,meteobridge,2013-07-20 08:02:00,
2013-07-20 02:08:00,67.5,60.8,29.76,NNW,333,0.9,2.9,79,0.00,,,0.00,meteobridge,2013-07-20 08:08:00,
2013-07-20 02:13:00,67.3,60.6,29.76,NNW,344,0.0,4.0,79,0.00,,,0.00,meteobridge,2013-07-20 08:13:00,
2013-07-20 02:18:00,66.9,60.6,29.76,NNW,331,2.0,4.0,80,0.00,,,0.00,meteobridge,2013-07-20 08:18:00,
2013-07-20 02:23:00,66.9,60.6,29.76,NNW,348,0.0,2.0,80,0.00,,,0.00,meteobridge,2013-07-20 08:23:00,
2013-07-20 02:28:00,66.9,60.3,29.76,North,350,2.0,4.0,79,0.00,,,0.00,meteobridge,2013-07-20 08:28:00,
2013-07-20 02:33:00,66.9,60.6,29.76,North,350,0.0,0.0,80,0.00,,,0.00,meteobridge,2013-07-20 08:33:00,
2013-07-20 02:38:00,66.7,60.4,29.76,North,350,0.0,0.0,80,0.00,,,0.00,meteobridge,2013-07-20 08:38:00,
2013-07-20 02:43:00,66.7,60.4,29.76,NNW,339,2.0,2.9,80,0.00,,,0.00,meteobridge,2013-07-20 08:43:00,
2013-07-20 02:49:00,66.7,60.1,29.75,North,349,0.0,2.0,79,0.00,,,0.00,meteobridge,2013-07-20 08:49:00,
2013-07-20 02:54:00,66.7,60.1,29.75,North,349,0.0,0.9,79,0.00,,,0.00,meteobridge,2013-07-20 08:54:00,
2013-07-20 02:59:00,66.7,60.1,29.75,NNW,342,0.9,4.9,79,0.00,,,0.00,meteobridge,2013-07-20 08:59:00,
2013-07-20 03:04:00,66.6,59.9,29.75,North,0,0.0,0.9,79,0.00,,,0.00,meteobridge,2013-07-20 09:04:00,
2013-07-20 03:09:00,66.6,60.3,29.75,North,0,0.0,0.0,80,0.00,,,0.00,meteobridge,2013-07-20 09:09:00,
2013-07-20 03:14:00,66.4,60.4,29.75,North,0,0.0,0.0,81,0.00,,,0.00,meteobridge,2013-07-20 09:14:00,
2013-07-20 03:19:00,66.0,60.4,29.76,North,0,0.0,0.9,82,0.00,,,0.00,meteobridge,2013-07-20 09:19:00,
2013-07-20 03:25:00,66.0,60.1,29.76,North,0,0.0,0.0,81,0.00,,,0.00,meteobridge,2013-07-20 09:25:00,
2013-07-20 03:30:00,66.0,60.1,29.75,North,0,0.0,0.0,81,0.00,,,0.00,meteobridge,2013-07-20 09:30:00,
2013-07-20 03:35:00,66.0,60.4,29.75,North,0,0.0,0.9,82,0.00,,,0.00,meteobridge,2013-07-20 09:35:00,
2013-07-20 03:40:00,66.2,60.6,29.75,North,0,0.0,0.9,82,0.00,,,0.00,meteobridge,2013-07-20 09:40:00,
2013-07-20 03:45:00,66.0,60.4,29.75,North,0,0.0,0.0,82,0.00,,,0.00,meteobridge,2013-07-20 09:45:00,
2013-07-20 03:50:00,65.8,60.3,29.75,North,0,0.0,0.0,82,0.00,,,0.00,meteobridge,2013-07-20 09:50:00,
2013-07-20 03:55:00,66.0,60.4,29.75,North,0,0.0,0.0,82,0.00,,,0.00,meteobridge,2013-07-20 09:55:00,
2013-07-20 04:00:00,66.0,60.6,29.74,North,0,0.0,0.0,83,0.00,,,0.00,meteobridge,2013-07-20 10:00:00,
2013-07-20 04:05:00,65.7,60.6,29.74,North,0,0.0,0.0,84,0.00,,,0.00,meteobridge,2013-07-20 10:05:00,
2013-07-20 04:11:00,65.7,60.6,29.74,North,0,0.0,0.0,84,0.00,,,0.00,meteobridge,2013-07-20 10:11:00,
2013-07-20 04:16:00,65.7,60.4,29.74,North,0,0.0,0.0,83,0.00,,,0.00,meteobridge,2013-07-20 10:16:00,
2013-07-20 04:21:00,65.8,60.6,29.74,North,0,0.0,0.9,83,0.00,,,0.00,meteobridge,2013-07-20 10:21:00,
2013-07-20 04:26:00,66.4,60.8,29.75,NNE,12,0.0,0.9,82,0.00,,,0.00,meteobridge,2013-07-20 10:26:00,
2013-07-20 04:31:00,67.1,60.4,29.74,East,96,2.0,4.0,79,0.00,,,0.00,meteobridge,2013-07-20 10:31:00,
2013-07-20 04:36:00,67.8,60.3,29.74,East,94,0.9,2.0,77,0.00,,,0.00,meteobridge,2013-07-20 10:36:00,
2013-07-20 04:41:00,67.5,60.4,29.75,NNE,20,0.0,4.9,78,0.00,,,0.00,meteobridge,2013-07-20 10:41:00,
2013-07-20 04:47:00,66.6,60.3,29.74,NNE,33,0.9,2.0,80,0.00,,,0.00,meteobridge,2013-07-20 10:47:00,
2013-07-20 04:52:00,66.0,60.1,29.75,SSE,159,0.0,0.9,81,0.00,,,0.00,meteobridge,2013-07-20 10:52:00,
2013-07-20 04:57:00,65.8,60.3,29.75,SSE,159,0.0,2.9,82,0.00,,,0.00,meteobridge,2013-07-20 10:57:00,
2013-07-20 05:02:00,65.8,60.3,29.75,SE,131,0.0,0.0,82,0.00,,,0.00,meteobridge,2013-07-20 11:02:00,
2013-07-20 05:07:00,65.8,60.3,29.74,SE,132,0.0,2.0,82,0.00,,,0.00,meteobridge,2013-07-20 11:07:00,
2013-07-20 05:12:00,66.0,60.4,29.74,SE,131,0.0,0.0,82,0.00,,,0.00,meteobridge,2013-07-20 11:12:00,
2013-07-20 05:17:00,66.9,58.8,29.74,SE,134,2.9,10.1,75,0.00,,,0.00,meteobridge,2013-07-20 11:17:00,
2013-07-20 05:22:00,68.5,59.2,29.73,ESE,114,6.9,10.1,72,0.00,,,0.00,meteobridge,2013-07-20 11:22:00,
2013-07-20 05:27:00,69.1,59.4,29.74,SE,125,4.9,6.9,71,0.00,,,0.00,meteobridge,2013-07-20 11:27:00,
2013-07-20 05:32:00,69.1,58.8,29.73,ESE,104,2.9,8.9,70,0.00,,,0.00,meteobridge,2013-07-20 11:32:00,
2013-07-20 05:37:00,68.9,59.2,29.74,SSE,157,4.9,8.1,71,0.00,,,0.00,meteobridge,2013-07-20 11:37:00,
2013-07-20 05:42:00,68.4,59.7,29.74,SSE,151,6.9,8.1,74,0.00,,,0.00,meteobridge,2013-07-20 11:42:00,
2013-07-20 05:47:00,67.6,59.7,29.74,SSE,148,2.9,10.1,76,0.00,,,0.00,meteobridge,2013-07-20 11:47:00,
2013-07-20 05:52:00,67.1,59.7,29.74,ESE,122,6.9,10.1,77,0.00,,,0.00,meteobridge,2013-07-20 11:52:00,
2013-07-20 05:57:00,66.9,59.9,29.75,NE,55,2.0,8.9,78,0.00,,,0.00,meteobridge,2013-07-20 11:57:00,
2013-07-20 06:02:00,66.7,60.4,29.75,North,350,2.0,4.0,80,0.00,,,0.00,meteobridge,2013-07-20 12:02:00,
2013-07-20 06:08:00,66.4,60.8,29.75,North,355,0.9,4.0,82,0.00,,,0.00,meteobridge,2013-07-20 12:08:00,
2013-07-20 06:13:00,66.0,61.0,29.75,North,11,2.0,2.0,84,0.00,,,0.00,meteobridge,2013-07-20 12:13:00,
2013-07-20 06:18:00,65.8,61.2,29.75,North,11,0.0,0.9,85,0.00,,,0.00,meteobridge,2013-07-20 12:18:00,
2013-07-20 06:23:00,66.0,61.7,29.75,NNE,19,0.9,2.0,86,0.00,,,0.00,meteobridge,2013-07-20 12:23:00,
2013-07-20 06:29:00,66.0,61.7,29.76,NE,54,0.0,0.0,86,0.00,,,0.00,meteobridge,2013-07-20 12:29:00,
2013-07-20 06:34:00,66.2,61.9,29.75,East,97,0.0,0.9,86,0.00,,,0.00,meteobridge,2013-07-20 12:34:00,
2013-07-20 06:39:00,66.4,62.1,29.76,East,97,0.9,0.9,86,0.00,,,0.00,meteobridge,2013-07-20 12:39:00,
2013-07-20 06:44:00,66.7,61.7,29.76,East,96,0.0,0.9,84,0.00,,,0.00,meteobridge,2013-07-20 12:44:00,
2013-07-20 06:49:00,66.9,61.2,29.76,East,96,0.0,0.9,82,0.00,,,0.00,meteobridge,2013-07-20 12:49:00,
2013-07-20 06:54:00,67.3,61.9,29.76,East,96,0.0,0.0,83,0.00,,,0.00,meteobridge,2013-07-20 12:54:00,
2013-07-20 06:59:00,67.3,61.9,29.76,East,96,0.0,0.0,83,0.00,,,0.00,meteobridge,2013-07-20 12:59:00,
2013-07-20 07:04:00,67.3,61.9,29.76,East,96,0.0,0.9,83,0.00,,,0.00,meteobridge,2013-07-20 13:04:00,
2013-07-20 07:09:00,67.1,61.3,29.76,West,261,0.9,0.9,82,0.00,,,0.00,meteobridge,2013-07-20 13:09:00,
2013-07-20 07:15:00,66.9,61.2,29.76,NNW,330,2.0,2.0,82,0.00,,,0.00,meteobridge,2013-07-20 13:15:00,
2013-07-20 07:20:00,66.9,61.0,29.76,NNW,344,0.9,2.0,81,0.00,,,0.00,meteobridge,2013-07-20 13:20:00,
2013-07-20 07:25:00,66.7,60.4,29.76,NNW,344,0.0,0.9,80,0.00,,,0.00,meteobridge,2013-07-20 13:25:00,
2013-07-20 07:30:00,66.7,60.4,29.76,NNW,344,0.0,0.0,80,0.00,,,0.00,meteobridge,2013-07-20 13:30:00,
2013-07-20 07:35:00,67.1,61.2,29.76,NNW,344,0.0,0.9,81,0.00,,,0.00,meteobridge,2013-07-20 13:35:00,
2013-07-20 07:40:00,67.5,60.8,29.76,NNW,344,0.9,2.0,79,0.00,,,0.00,meteobridge,2013-07-20 13:40:00,
2013-07-20 07:45:00,67.8,60.6,29.75,North,350,0.0,0.9,78,0.00,,,0.00,meteobridge,2013-07-20 13:45:00,
2013-07-20 07:50:00,68.2,60.6,29.76,North,350,0.0,0.9,77,0.00,,,0.00,meteobridge,2013-07-20 13:50:00,
2013-07-20 07:55:00,68.5,60.6,29.76,North,350,0.0,0.0,76,0.00,,,0.00,meteobridge,2013-07-20 13:55:00,
2013-07-20 08:01:00,69.3,61.3,29.76,North,350,0.0,0.9,76,0.00,,,0.00,meteobridge,2013-07-20 14:01:00,
2013-07-20 08:06:00,69.6,61.0,29.76,North,350,0.0,0.9,74,0.00,,,0.00,meteobridge,2013-07-20 14:06:00,
2013-07-20 08:11:00,70.0,60.6,29.76,North,350,0.0,0.9,72,0.00,,,0.00,meteobridge,2013-07-20 14:11:00,
2013-07-20 08:16:00,69.6,60.6,29.75,North,350,0.9,0.9,73,0.00,,,0.00,meteobridge,2013-07-20 14:16:00,
2013-07-20 08:21:00,70.5,61.5,29.75,North,350,0.9,0.9,73,0.00,,,0.00,meteobridge,2013-07-20 14:21:00,
2013-07-20 08:26:00,71.6,61.7,29.76,North,350,0.0,2.0,71,0.00,,,0.00,meteobridge,2013-07-20 14:26:00,
2013-07-20 08:31:00,72.0,61.2,29.76,NNW,337,0.0,0.9,69,0.00,,,0.00,meteobridge,2013-07-20 14:31:00,
2013-07-20 08:36:00,72.0,62.1,29.76,NNW,337,0.0,0.9,71,0.00,,,0.00,meteobridge,2013-07-20 14:36:00,
2013-07-20 08:41:00,72.1,61.9,29.76,NNW,347,0.0,4.0,70,0.00,,,0.00,meteobridge,2013-07-20 14:41:00,
2013-07-20 08:46:00,71.8,60.6,29.76,NNW,348,0.9,2.9,68,0.00,,,0.00,meteobridge,2013-07-20 14:46:00,
2013-07-20 08:51:00,72.1,61.9,29.76,North,5,0.9,2.9,70,0.00,,,0.00,meteobridge,2013-07-20 14:51:00,
2013-07-20 08:56:00,72.7,61.5,29.76,WNW,282,0.0,2.9,68,0.00,,,0.00,meteobridge,2013-07-20 14:56:00,
2013-07-20 09:01:00,72.9,61.7,29.77,WNW,293,0.0,2.0,68,0.00,,,0.00,meteobridge,2013-07-20 15:01:00,
2013-07-20 09:06:00,73.0,62.6,29.77,NNW,340,0.9,2.9,70,0.00,,,0.00,meteobridge,2013-07-20 15:06:00,
2013-07-20 09:11:00,73.4,62.2,29.77,NNW,332,0.0,2.0,68,0.00,,,0.00,meteobridge,2013-07-20 15:11:00,
2013-07-20 09:16:00,73.8,61.7,29.77,NNW,340,2.0,4.9,66,0.00,,,0.00,meteobridge,2013-07-20 15:16:00,
2013-07-20 09:22:00,73.6,61.2,29.77,NNW,348,0.9,2.9,65,0.00,,,0.00,meteobridge,2013-07-20 15:22:00,
2013-07-20 09:27:00,74.1,62.1,29.77,West,278,0.9,0.9,66,0.00,,,0.00,meteobridge,2013-07-20 15:27:00,
2013-07-20 09:32:00,73.9,61.0,29.76,West,278,0.9,0.9,64,0.00,,,0.00,meteobridge,2013-07-20 15:32:00,
2013-07-20 09:37:00,74.1,61.5,29.76,WNW,284,0.0,0.9,65,0.00,,,0.00,meteobridge,2013-07-20 15:37:00,
2013-07-20 09:42:00,74.7,61.7,29.76,NW,313,0.0,2.9,64,0.00,,,0.00,meteobridge,2013-07-20 15:42:00,
2013-07-20 09:47:00,74.8,61.9,29.76,NW,320,0.0,2.0,64,0.00,,,0.00,meteobridge,2013-07-20 15:47:00,
2013-07-20 09:52:00,75.4,61.9,29.76,WNW,294,0.0,2.9,63,0.00,,,0.00,meteobridge,2013-07-20 15:52:00,
2013-07-20 09:57:00,75.9,62.4,29.77,NNW,332,0.9,2.9,63,0.00,,,0.00,meteobridge,2013-07-20 15:57:00,
2013-07-20 10:02:00,76.6,62.2,29.76,NW,315,0.9,0.9,61,0.00,,,0.00,meteobridge,2013-07-20 16:02:00,
2013-07-20 10:07:00,77.0,60.6,29.77,NW,308,2.0,4.9,57,0.00,,,0.00,meteobridge,2013-07-20 16:07:00,
2013-07-20 10:12:00,75.7,60.8,29.77,WNW,290,0.0,4.0,60,0.00,,,0.00,meteobridge,2013-07-20 16:12:00,
2013-07-20 10:18:00,74.8,60.4,29.76,WNW,300,0.0,2.9,61,0.00,,,0.00,meteobridge,2013-07-20 16:18:00,
2013-07-20 10:23:00,74.8,60.4,29.76,WNW,284,0.9,0.9,61,0.00,,,0.00,meteobridge,2013-07-20 16:23:00,
2013-07-20 10:28:00,75.4,61.5,29.76,NW,317,2.0,4.9,62,0.00,,,0.00,meteobridge,2013-07-20 16:28:00,
2013-07-20 10:33:00,75.4,60.4,29.76,NW,311,0.9,2.0,60,0.00,,,0.00,meteobridge,2013-07-20 16:33:00,
2013-07-20 10:38:00,75.4,60.4,29.76,NW,306,0.0,2.0,60,0.00,,,0.00,meteobridge,2013-07-20 16:38:00,
2013-07-20 10:43:00,76.3,61.9,29.76,NNW,348,0.0,2.9,61,0.00,,,0.00,meteobridge,2013-07-20 16:43:00,
2013-07-20 10:48:00,77.5,60.1,29.75,West,280,0.9,4.0,55,0.00,,,0.00,meteobridge,2013-07-20 16:48:00,
2013-07-20 10:53:00,77.2,59.7,29.75,SE,138,0.9,2.9,55,0.00,,,0.00,meteobridge,2013-07-20 16:53:00,
2013-07-20 10:58:00,77.2,61.7,29.75,SE,138,0.0,0.9,59,0.00,,,0.00,meteobridge,2013-07-20 16:58:00,
2013-07-20 11:03:00,78.3,61.3,29.75,NNW,346,0.9,2.0,56,0.00,,,0.00,meteobridge,2013-07-20 17:03:00,
2013-07-20 11:08:00,78.1,60.1,29.75,NW,317,0.0,2.9,54,0.00,,,0.00,meteobridge,2013-07-20 17:08:00,
2013-07-20 11:13:00,78.3,60.8,29.75,South,188,2.0,4.0,55,0.00,,,0.00,meteobridge,2013-07-20 17:13:00,
2013-07-20 11:18:00,78.6,60.6,29.75,North,355,2.0,2.9,54,0.00,,,0.00,meteobridge,2013-07-20 17:18:00,
2013-07-20 11:23:00,79.3,60.8,29.75,NW,313,0.9,2.9,53,0.00,,,0.00,meteobridge,2013-07-20 17:23:00,
2013-07-20 11:28:00,79.7,61.5,29.74,North,0,0.0,4.0,54,0.00,,,0.00,meteobridge,2013-07-20 17:28:00,
2013-07-20 11:34:00,80.4,62.8,29.74,North,0,0.9,2.9,55,0.00,,,0.00,meteobridge,2013-07-20 17:34:00,
2013-07-20 11:39:00,81.0,61.7,29.73,SSW,213,0.0,2.9,52,0.00,,,0.00,meteobridge,2013-07-20 17:39:00,
2013-07-20 11:44:00,80.8,60.4,29.73,NW,309,0.9,2.0,50,0.00,,,0.00,meteobridge,2013-07-20 17:44:00,
2013-07-20 11:49:00,80.4,62.2,29.73,WNW,294,0.0,0.9,54,0.00,,,0.00,meteobridge,2013-07-20 17:49:00,
2013-07-20 11:54:00,80.2,61.5,29.73,SSW,197,2.9,4.9,53,0.00,,,0.00,meteobridge,2013-07-20 17:54:00,
2013-07-20 11:59:00,80.2,60.4,29.73,WSW,258,4.0,6.0,51,0.00,,,0.00,meteobridge,2013-07-20 17:59:00,
2013-07-20 12:04:00,81.3,61.5,29.72,South,187,6.0,6.0,51,0.00,,,0.00,meteobridge,2013-07-20 18:04:00,
2013-07-20 12:09:00,81.9,59.7,29.72,NW,311,0.9,2.0,47,0.00,,,0.00,meteobridge,2013-07-20 18:09:00,
2013-07-20 12:14:00,81.7,60.6,29.72,SSE,150,0.9,4.0,49,0.00,,,0.00,meteobridge,2013-07-20 18:14:00,
2013-07-20 12:19:00,80.4,59.5,29.72,NNW,347,2.0,4.0,49,0.00,,,0.00,meteobridge,2013-07-20 18:19:00,
2013-07-20 12:24:00,81.1,60.8,29.72,SSW,205,4.9,8.1,50,0.00,,,0.00,meteobridge,2013-07-20 18:24:00,
2013-07-20 12:29:00,81.1,61.3,29.71,NNE,18,0.9,6.0,51,0.00,,,0.00,meteobridge,2013-07-20 18:29:00,
2013-07-20 12:34:00,81.0,60.6,29.72,SSW,200,6.0,6.0,50,0.00,,,0.00,meteobridge,2013-07-20 18:34:00,
2013-07-20 12:40:00,82.2,59.4,29.71,NNE,16,0.0,2.0,46,0.00,,,0.00,meteobridge,2013-07-20 18:40:00,
2013-07-20 12:45:00,83.1,60.8,29.71,SE,144,2.9,6.0,47,0.00,,,0.00,meteobridge,2013-07-20 18:45:00,
2013-07-20 12:50:00,83.5,59.9,29.70,South,184,2.9,4.9,45,0.00,,,0.00,meteobridge,2013-07-20 18:50:00,
2013-07-20 12:55:00,82.6,60.3,29.70,SW,218,4.9,6.0,47,0.00,,,0.00,meteobridge,2013-07-20 18:55:00,
2013-07-20 13:00:00,81.9,59.0,29.70,South,169,0.9,8.1,46,0.00,,,0.00,meteobridge,2013-07-20 19:00:00,
2013-07-20 13:05:00,81.7,59.5,29.70,SSE,160,2.0,4.9,47,0.00,,,0.00,meteobridge,2013-07-20 19:05:00,
2013-07-20 13:10:00,81.1,59.5,29.70,SE,141,2.0,4.0,48,0.00,,,0.00,meteobridge,2013-07-20 19:10:00,
2013-07-20 13:15:00,81.0,59.4,29.70,WSW,238,4.0,6.0,48,0.00,,,0.00,meteobridge,2013-07-20 19:15:00,
2013-07-20 13:20:00,81.0,59.4,29.70,ESE,104,0.9,4.0,48,0.00,,,0.00,meteobridge,2013-07-20 19:20:00,
2013-07-20 13:25:00,80.8,60.4,29.70,SE,143,2.0,4.0,50,0.00,,,0.00,meteobridge,2013-07-20 19:25:00,
2013-07-20 13:30:00,80.8,60.4,29.70,SE,143,0.9,4.9,50,0.00,,,0.00,meteobridge,2013-07-20 19:30:00,
2013-07-20 13:35:00,80.4,60.6,29.69,South,172,0.0,4.9,51,0.00,,,0.00,meteobridge,2013-07-20 19:35:00,
2013-07-20 13:40:00,80.6,60.8,29.68,SSW,197,2.9,4.9,51,0.00,,,0.00,meteobridge,2013-07-20 19:40:00,
2013-07-20 13:45:00,80.2,61.0,29.68,SSE,163,4.0,4.9,52,0.00,,,0.00,meteobridge,2013-07-20 19:45:00,
2013-07-20 13:50:00,80.2,60.4,29.68,SSE,163,2.9,4.9,51,0.00,,,0.00,meteobridge,2013-07-20 19:50:00,
2013-07-20 13:55:00,81.0,61.2,29.68,SE,140,2.0,2.9,51,0.00,,,0.00,meteobridge,2013-07-20 19:55:00,
2013-07-20 14:00:00,81.9,60.8,29.68,SE,124,2.9,4.0,49,0.00,,,0.00,meteobridge,2013-07-20 20:00:00,
2013-07-20 14:05:00,81.7,60.1,29.68,ESE,107,8.9,13.0,48,0.00,,,0.00,meteobridge,2013-07-20 20:05:00,
2013-07-20 14:11:00,82.2,59.9,29.67,SSE,150,2.0,6.0,47,0.00,,,0.00,meteobridge,2013-07-20 20:11:00,
2013-07-20 14:16:00,82.9,58.8,29.67,East,100,6.0,10.1,44,0.00,,,0.00,meteobridge,2013-07-20 20:16:00,
2013-07-20 14:21:00,82.8,59.9,29.67,SE,133,2.9,8.9,46,0.00,,,0.00,meteobridge,2013-07-20 20:21:00,
2013-07-20 14:26:00,83.8,60.8,29.67,SE,134,4.9,6.9,46,0.00,,,0.00,meteobridge,2013-07-20 20:26:00,
2013-07-20 14:31:00,83.8,60.8,29.67,SSE,153,6.0,8.1,46,0.00,,,0.00,meteobridge,2013-07-20 20:31:00,
2013-07-20 14:36:00,84.2,60.6,29.67,SSE,155,2.0,6.9,45,0.00,,,0.00,meteobridge,2013-07-20 20:36:00,
2013-07-20 14:41:00,85.1,60.1,29.66,ESE,123,4.9,6.9,43,0.00,,,0.00,meteobridge,2013-07-20 20:41:00,
2013-07-20 14:46:00,84.6,60.8,29.66,South,173,2.9,8.1,45,0.00,,,0.00,meteobridge,2013-07-20 20:46:00,
2013-07-20 14:51:00,85.1,58.8,29.66,SSE,163,4.0,6.9,41,0.00,,,0.00,meteobridge,2013-07-20 20:51:00,
2013-07-20 14:56:00,84.9,59.2,29.65,SSE,154,2.0,4.9,42,0.00,,,0.00,meteobridge,2013-07-20 20:56:00,
2013-07-20 15:01:00,85.5,58.5,29.65,South,177,4.0,6.0,40,0.00,,,0.00,meteobridge,2013-07-20 21:01:00,
2013-07-20 15:06:00,84.9,57.9,29.65,WSW,238,2.9,6.0,40,0.00,,,0.00,meteobridge,2013-07-20 21:06:00,
2013-07-20 15:11:00,86.4,57.0,29.65,South,176,2.0,4.9,37,0.00,,,0.00,meteobridge,2013-07-20 21:11:00,
2013-07-20 15:16:00,86.4,57.0,29.64,SSE,165,4.9,10.1,37,0.00,,,0.00,meteobridge,2013-07-20 21:16:00,
2013-07-20 15:21:00,86.9,57.6,29.64,SE,142,0.9,6.0,37,0.00,,,0.00,meteobridge,2013-07-20 21:21:00,
2013-07-20 15:26:00,86.9,56.7,29.63,SE,140,2.9,2.9,36,0.00,,,0.00,meteobridge,2013-07-20 21:26:00,
2013-07-20 15:31:00,87.1,55.2,29.63,East,84,0.9,8.1,34,0.00,,,0.00,meteobridge,2013-07-20 21:31:00,
2013-07-20 15:36:00,87.6,56.7,29.63,SE,145,6.0,6.0,35,0.00,,,0.00,meteobridge,2013-07-20 21:36:00,
2013-07-20 15:41:00,87.3,56.3,29.63,East,96,0.9,4.9,35,0.00,,,0.00,meteobridge,2013-07-20 21:41:00,
2013-07-20 15:46:00,87.6,56.7,29.62,WSW,254,2.0,2.9,35,0.00,,,0.00,meteobridge,2013-07-20 21:46:00,
2013-07-20 15:51:00,88.3,56.5,29.62,ESE,106,0.0,4.9,34,0.00,,,0.00,meteobridge,2013-07-20 21:51:00,
2013-07-20 15:56:00,87.3,57.0,29.62,South,183,2.0,6.9,36,0.00,,,0.00,meteobridge,2013-07-20 21:56:00,
2013-07-20 16:02:00,87.1,56.8,29.62,SE,134,0.9,4.9,36,0.00,,,0.00,meteobridge,2013-07-20 22:02:00,
2013-07-20 16:07:00,87.1,58.5,29.62,SE,141,2.0,6.9,38,0.00,,,0.00,meteobridge,2013-07-20 22:07:00,
2013-07-20 16:12:00,87.1,57.6,29.62,SE,130,4.0,10.1,37,0.00,,,0.00,meteobridge,2013-07-20 22:12:00,
2013-07-20 16:17:00,85.8,56.5,29.62,ESE,104,2.0,4.9,37,0.00,,,0.00,meteobridge,2013-07-20 22:17:00,
2013-07-20 16:22:00,85.6,58.5,29.62,SSE,160,0.0,4.0,40,0.00,,,0.00,meteobridge,2013-07-20 22:22:00,
2013-07-20 16:27:00,86.7,57.4,29.62,SW,230,4.9,4.9,37,0.00,,,0.00,meteobridge,2013-07-20 22:27:00,
2013-07-20 16:32:00,87.3,59.9,29.62,South,190,0.9,4.9,40,0.00,,,0.00,meteobridge,2013-07-20 22:32:00,
2013-07-20 16:37:00,87.4,57.9,29.62,South,174,2.9,8.1,37,0.00,,,0.00,meteobridge,2013-07-20 22:37:00,
2013-07-20 16:42:00,86.7,57.4,29.62,SE,142,8.1,8.9,37,0.00,,,0.00,meteobridge,2013-07-20 22:42:00,
2013-07-20 16:47:00,87.3,59.4,29.62,SSE,156,4.0,6.9,39,0.00,,,0.00,meteobridge,2013-07-20 22:47:00,
2013-07-20 16:52:00,87.4,58.6,29.62,SSE,163,4.9,8.1,38,0.00,,,0.00,meteobridge,2013-07-20 22:52:00,
2013-07-20 16:57:00,86.7,57.4,29.62,SSE,147,0.9,6.0,37,0.00,,,0.00,meteobridge,2013-07-20 22:57:00,
2013-07-20 17:02:00,86.9,57.6,29.62,SW,215,2.9,6.0,37,0.00,,,0.00,meteobridge,2013-07-20 23:02:00,
2013-07-20 17:07:00,87.1,56.8,29.62,South,188,6.0,6.9,36,0.00,,,0.00,meteobridge,2013-07-20 23:07:00,
2013-07-20 17:12:00,86.5,57.2,29.61,SE,136,2.0,4.9,37,0.00,,,0.00,meteobridge,2013-07-20 23:12:00,
2013-07-20 17:17:00,86.9,56.7,29.61,South,188,0.9,4.0,36,0.00,,,0.00,meteobridge,2013-07-20 23:17:00,
2013-07-20 17:22:00,87.4,56.5,29.61,SE,136,4.0,6.0,35,0.00,,,0.00,meteobridge,2013-07-20 23:22:00,
2013-07-20 17:27:00,86.9,56.7,29.61,SW,225,2.9,2.9,36,0.00,,,0.00,meteobridge,2013-07-20 23:27:00,
2013-07-20 17:32:00,87.1,56.1,29.60,South,176,2.9,8.1,35,0.00,,,0.00,meteobridge,2013-07-20 23:32:00,
2013-07-20 17:37:00,87.1,56.1,29.60,SSE,162,4.9,8.1,35,0.00,,,0.00,meteobridge,2013-07-20 23:37:00,
2013-07-20 17:42:00,86.7,55.8,29.60,SSE,150,2.9,6.9,35,0.00,,,0.00,meteobridge,2013-07-20 23:42:00,
2013-07-20 17:47:00,86.5,55.6,29.60,SE,133,4.9,8.9,35,0.00,,,0.00,meteobridge,2013-07-20 23:47:00,
2013-07-20 17:52:00,85.8,55.0,29.60,SE,138,4.9,6.9,35,0.00,,,0.00,meteobridge,2013-07-20 23:52:00,
2013-07-20 17:58:00,85.5,54.7,29.60,East,94,0.9,2.0,35,0.00,,,0.00,meteobridge,2013-07-20 23:58:00,
2013-07-20 18:03:00,85.1,55.9,29.60,ESE,117,6.9,10.1,37,0.00,,,0.00,meteobridge,2013-07-21 00:03:00,
2013-07-20 18:08:00,84.7,55.6,29.60,South,169,4.0,6.9,37,0.00,,,0.00,meteobridge,2013-07-21 00:08:00,
2013-07-20 18:13:00,84.6,55.4,29.60,SW,224,0.9,0.9,37,0.00,,,0.00,meteobridge,2013-07-21 00:13:00,
2013-07-20 18:18:00,84.7,55.6,29.59,SSE,155,0.9,2.9,37,0.00,,,0.00,meteobridge,2013-07-21 00:18:00,
2013-07-20 18:23:00,84.7,54.9,29.59,East,92,2.0,8.1,36,0.00,,,0.00,meteobridge,2013-07-21 00:23:00,
2013-07-20 18:28:00,84.9,55.0,29.60,SE,127,2.0,6.9,36,0.00,,,0.00,meteobridge,2013-07-21 00:28:00,
2013-07-20 18:33:00,84.7,54.1,29.59,SSE,151,2.9,10.1,35,0.00,,,0.00,meteobridge,2013-07-21 00:33:00,
2013-07-20 18:38:00,84.7,54.1,29.60,SSE,165,2.0,8.1,35,0.00,,,0.00,meteobridge,2013-07-21 00:38:00,
2013-07-20 18:44:00,84.6,54.0,29.60,SSE,153,8.9,8.9,35,0.00,,,0.00,meteobridge,2013-07-21 00:44:00,
2013-07-20 18:49:00,84.4,53.8,29.60,SE,144,2.9,10.1,35,0.00,,,0.00,meteobridge,2013-07-21 00:49:00,
2013-07-20 18:54:00,84.4,53.8,29.60,SSE,150,8.1,8.1,35,0.00,,,0.00,meteobridge,2013-07-21 00:54:00,
2013-07-20 18:59:00,84.0,54.1,29.60,South,174,2.0,6.0,36,0.00,,,0.00,meteobridge,2013-07-21 00:59:00,
2013-07-20 19:04:00,84.0,54.9,29.60,SE,131,2.9,6.0,37,0.00,,,0.00,meteobridge,2013-07-21 01:04:00,
2013-07-20 19:09:00,84.0,54.1,29.61,ENE,73,8.1,8.1,36,0.00,,,0.00,meteobridge,2013-07-21 01:09:00,
2013-07-20 19:14:00,83.7,54.7,29.61,ESE,119,2.9,6.0,37,0.00,,,0.00,meteobridge,2013-07-21 01:14:00,
2013-07-20 19:19:00,83.5,54.5,29.61,East,96,4.9,4.9,37,0.00,,,0.00,meteobridge,2013-07-21 01:19:00,
2013-07-20 19:24:00,83.5,53.8,29.62,East,84,0.0,6.9,36,0.00,,,0.00,meteobridge,2013-07-21 01:24:00,
2013-07-20 19:29:00,83.5,53.8,29.62,SSE,148,2.9,4.9,36,0.00,,,0.00,meteobridge,2013-07-21 01:29:00,
2013-07-20 19:34:00,83.3,53.6,29.62,South,174,2.0,6.0,36,0.00,,,0.00,meteobridge,2013-07-21 01:34:00,
2013-07-20 19:39:00,83.1,54.1,29.62,SE,142,2.9,6.9,37,0.00,,,0.00,meteobridge,2013-07-21 01:39:00,
2013-07-20 19:44:00,82.9,54.0,29.62,SE,146,8.1,8.1,37,0.00,,,0.00,meteobridge,2013-07-21 01:44:00,
2013-07-20 19:49:00,82.8,54.5,29.62,SE,146,4.9,6.0,38,0.00,,,0.00,meteobridge,2013-07-21 01:49:00,
2013-07-20 19:54:00,82.6,55.0,29.62,SW,223,6.0,6.0,39,0.00,,,0.00,meteobridge,2013-07-21 01:54:00,
2013-07-20 19:59:00,82.0,55.4,29.63,SW,229,2.9,6.0,40,0.00,,,0.00,meteobridge,2013-07-21 01:59:00,
2013-07-20 20:04:00,81.5,55.6,29.63,SSW,207,2.0,6.0,41,0.00,,,0.00,meteobridge,2013-07-21 02:04:00,
2013-07-20 20:10:00,81.0,55.8,29.63,South,188,4.0,8.1,42,0.00,,,0.00,meteobridge,2013-07-21 02:10:00,
2013-07-20 20:15:00,80.4,55.2,29.63,SSW,202,6.0,8.9,42,0.00,,,0.00,meteobridge,2013-07-21 02:15:00,
2013-07-20 20:19:00,80.1,55.6,29.64,SW,223,8.9,10.1,43,0.00,,,0.00,meteobridge,2013-07-21 02:19:00,
2013-07-20 20:25:00,79.7,55.2,29.64,SSW,193,2.9,10.1,43,0.00,,,0.00,meteobridge,2013-07-21 02:25:00,
2013-07-20 20:30:00,79.5,55.0,29.64,WSW,249,4.0,6.9,43,0.00,,,0.00,meteobridge,2013-07-21 02:30:00,
2013-07-20 20:35:00,79.2,55.4,29.64,SW,223,4.0,8.9,44,0.00,,,0.00,meteobridge,2013-07-21 02:35:00,
2013-07-20 20:39:00,79.0,55.2,29.64,SSW,208,2.0,6.0,44,0.00,,,0.00,meteobridge,2013-07-21 02:39:00,
2013-07-20 20:45:00,78.6,54.3,29.65,SSE,148,2.9,6.0,43,0.00,,,0.00,meteobridge,2013-07-21 02:45:00,
2013-07-20 20:50:00,78.4,54.7,29.65,SSW,194,0.0,2.9,44,0.00,,,0.00,meteobridge,2013-07-21 02:50:00,
2013-07-20 20:55:00,78.3,54.5,29.65,South,190,0.9,8.1,44,0.00,,,0.00,meteobridge,2013-07-21 02:55:00,
2013-07-20 21:00:00,78.1,54.3,29.65,SW,232,4.0,6.0,44,0.00,,,0.00,meteobridge,2013-07-21 03:00:00,
2013-07-20 21:05:00,78.1,54.3,29.66,SSW,207,0.0,2.9,44,0.00,,,0.00,meteobridge,2013-07-21 03:05:00,
2013-07-20 21:10:00,77.7,54.1,29.66,SW,219,0.0,2.9,44,0.00,,,0.00,meteobridge,2013-07-21 03:10:00,
2013-07-20 21:15:00,77.5,54.0,29.66,SSW,202,0.0,2.9,44,0.00,,,0.00,meteobridge,2013-07-21 03:15:00,
2013-07-20 21:20:00,77.5,54.0,29.67,SW,227,0.9,2.9,44,0.00,,,0.00,meteobridge,2013-07-21 03:20:00,
2013-07-20 21:25:00,77.5,52.7,29.68,SW,216,0.0,0.0,42,0.00,,,0.00,meteobridge,2013-07-21 03:25:00,
2013-07-20 21:30:00,77.5,53.2,29.68,SW,216,0.0,0.9,43,0.00,,,0.00,meteobridge,2013-07-21 03:30:00,
2013-07-20 21:35:00,77.4,54.3,29.70,NNW,340,4.0,8.9,45,0.00,,,0.00,meteobridge,2013-07-21 03:35:00,
2013-07-20 21:40:00,76.5,54.7,29.70,NNW,348,6.9,8.9,47,0.00,,,0.00,meteobridge,2013-07-21 03:40:00,
2013-07-20 21:45:00,75.6,54.5,29.70,NNE,24,2.9,8.9,48,0.00,,,0.00,meteobridge,2013-07-21 03:45:00,
2013-07-20 21:51:00,74.8,54.3,29.70,North,5,2.9,13.0,49,0.00,,,0.00,meteobridge,2013-07-21 03:51:00,
2013-07-20 21:56:00,74.3,54.5,29.70,North,5,0.9,4.9,50,0.00,,,0.00,meteobridge,2013-07-21 03:56:00,
2013-07-20 22:01:00,73.9,54.7,29.70,North,355,2.0,6.9,51,0.00,,,0.00,meteobridge,2013-07-21 04:01:00,
2013-07-20 22:02:00,73.9,54.7,29.70,NE,40,4.9,8.1,51,0.00,,,0.00,meteobridge,2013-07-21 04:02:00,
2013-07-20 22:04:00,73.8,54.5,29.70,North,11,2.0,8.1,51,0.00,,,0.00,meteobridge,2013-07-21 04:04:00,
2013-07-20 22:09:00,73.2,54.5,29.70,North,355,2.0,4.9,52,0.00,,,0.00,meteobridge,2013-07-21 04:09:00,
2013-07-20 22:14:00,73.0,54.3,29.70,North,355,2.9,6.9,52,0.00,,,0.00,meteobridge,2013-07-21 04:14:00,
2013-07-20 22:19:00,72.9,54.7,29.70,North,5,0.0,4.9,53,0.00,,,0.00,meteobridge,2013-07-21 04:19:00,
2013-07-20 22:24:00,73.0,54.3,29.70,NNE,19,0.9,4.0,52,0.00,,,0.00,meteobridge,2013-07-21 04:24:00,
2013-07-20 22:29:00,72.9,54.7,29.70,NNW,343,0.9,2.9,53,0.00,,,0.00,meteobridge,2013-07-21 04:29:00,
2013-07-20 22:34:00,72.7,54.5,29.70,NNE,33,0.9,2.9,53,0.00,,,0.00,meteobridge,2013-07-21 04:34:00,
2013-07-20 22:39:00,72.7,54.5,29.70,NNW,344,0.0,4.0,53,0.00,,,0.00,meteobridge,2013-07-21 04:39:00,
2013-07-20 22:44:00,72.7,54.5,29.70,North,355,0.9,2.9,53,0.00,,,0.00,meteobridge,2013-07-21 04:44:00,
2013-07-20 22:49:00,72.7,55.0,29.69,NE,41,0.0,2.0,54,0.00,,,0.00,meteobridge,2013-07-21 04:49:00,
2013-07-20 22:54:00,72.7,55.0,29.69,North,5,2.0,4.0,54,0.00,,,0.00,meteobridge,2013-07-21 04:54:00,
2013-07-20 22:59:00,72.7,55.0,29.69,North,351,0.9,4.0,54,0.00,,,0.00,meteobridge,2013-07-21 04:59:00,
2013-07-20 23:04:00,72.5,54.9,29.69,NNW,338,0.0,2.0,54,0.00,,,0.00,meteobridge,2013-07-21 05:04:00,
2013-07-20 23:09:00,72.7,55.0,29.69,NNW,333,0.9,2.0,54,0.00,,,0.00,meteobridge,2013-07-21 05:09:00,
2013-07-20 23:14:00,72.7,55.0,29.69,North,0,4.0,6.0,54,0.00,,,0.00,meteobridge,2013-07-21 05:14:00,
2013-07-20 23:19:00,72.7,54.5,29.69,NNW,342,4.9,6.0,53,0.00,,,0.00,meteobridge,2013-07-21 05:19:00,
2013-07-20 23:24:00,72.9,55.2,29.69,North,5,0.9,2.9,54,0.00,,,0.00,meteobridge,2013-07-21 05:24:00,
2013-07-20 23:30:00,72.7,55.0,29.69,North,5,0.9,2.9,54,0.00,,,0.00,meteobridge,2013-07-21 05:30:00,
2013-07-20 23:35:00,72.3,55.2,29.69,NNW,345,0.9,2.0,55,0.00,,,0.00,meteobridge,2013-07-21 05:35:00,
2013-07-20 23:40:00,72.1,55.0,29.69,NNW,347,0.0,2.0,55,0.00,,,0.00,meteobridge,2013-07-21 05:40:00,
2013-07-20 23:45:00,72.1,55.0,29.69,North,351,0.0,0.9,55,0.00,,,0.00,meteobridge,2013-07-21 05:45:00,
2013-07-20 23:50:00,72.0,54.9,29.69,North,351,0.0,0.0,55,0.00,,,0.00,meteobridge,2013-07-21 05:50:00,
2013-07-20 23:55:00,71.8,55.2,29.69,North,351,0.0,0.0,56,0.00,,,0.00,meteobridge,2013-07-21 05:55:00,